VA7GJ-2 Weather Reports


Display with metric or nautical units.
time (UTC)temp
F
wind
direction
speed
MPH
gust
MPH
rain 1hr
in
rain 24hr
in
rain mn
in
humidity
%
barometer
mb
20211203213153 51 226 0.0 0.0 0.00 0.00 0.00 65 1015.0
20211203212152 52 139 0.0 0.0 0.00 0.00 0.00 66 1015.1
20211203211152 51 248 0.0 0.0 0.00 0.00 0.00 67 1015.2
20211203210152 52 208 0.0 0.0 0.00 0.00 0.00 67 1015.4
20211203203152 50 31 0.0 0.0 0.00 0.00 0.00 72 1015.6
20211203202152 50 238 0.0 0.0 0.00 0.00 0.00 71 1015.8
20211203201152 49 248 0.0 0.0 0.00 0.00 0.00 72 1016.1
20211203200152 47 338 0.0 0.0 0.00 0.00 0.00 77 1016.5
20211203193152 45 112 0.0 0.0 0.00 0.00 0.00 83 1016.7
20211203191152 42 202 0.0 0.0 0.00 0.00 0.00 88 1017.2
20211203185152 40 225 0.0 0.0 0.00 0.00 0.00 94 1017.3
20211203183152 39 292 0.0 0.0 0.00 0.00 0.00 96 1017.4
20211203182151 39 292 0.0 0.0 0.00 0.00 0.00 98 1017.7
20211203180152 37 292 0.0 0.0 0.00 0.00 0.00 99 1017.6
20211203175151 36 338 0.0 0.0 0.00 0.00 0.00 99 1017.6
20211203174153 35 351 0.0 0.0 0.00 0.00 0.00 99 1017.6
20211203173153 34 58 0.0 0.0 0.00 0.00 0.00 99 1017.5
20211203172151 34 68 0.0 0.0 0.00 0.00 0.00 99 1017.5
20211203171151 33 68 0.0 0.0 0.00 0.00 0.00 99 1017.6
20211203170151 32 45 0.0 0.0 0.00 0.00 0.00 99 1017.8
20211203165151 32 45 0.0 0.0 0.00 0.00 0.00 99 1017.7
20211203164151 31 45 0.0 0.0 0.00 0.00 0.00 99 1017.7
20211203162151 30 45 0.0 0.0 0.00 0.00 0.00 99 1017.7
20211203161151 30 45 0.0 0.0 0.00 0.00 0.00 99 1017.8
20211203160155 30 45 0.0 0.0 0.00 0.00 0.00 99 1017.8
20211203155154 30 45 0.0 0.0 0.00 0.00 0.00 99 1017.8
20211203154151 30 22 0.0 0.0 0.00 0.00 0.00 99 1017.9
20211203153151 30 45 0.0 0.0 0.00 0.01 0.00 99 1017.7
20211203152151 30 45 0.0 0.0 0.00 0.01 0.00 99 1017.8
20211203151150 31 45 0.0 0.0 0.00 0.01 0.00 99 1017.6
20211203150150 31 45 0.0 0.0 0.00 0.01 0.00 99 1017.7
20211203145150 31 45 0.0 0.0 0.00 0.01 0.00 99 1017.7
20211203144150 30 45 0.0 0.0 0.00 0.01 0.00 99 1017.9
20211203143150 30 45 0.0 0.0 0.00 0.01 0.00 99 1017.7
20211203142150 30 45 0.0 0.0 0.00 0.01 0.00 99 1017.9
20211203141150 30 78 0.0 0.0 0.00 0.01 0.00 99 1017.7
20211203140150 30 45 0.0 0.0 0.00 0.01 0.00 99 1018.1
20211203135150 30 45 0.0 0.0 0.00 0.01 0.00 99 1018.0
20211203134150 30 45 0.0 0.0 0.00 0.01 0.00 99 1018.0
20211203133150 30 45 0.0 0.0 0.00 0.01 0.00 99 1018.0
20211203132150 30 45 0.0 0.0 0.00 0.01 0.00 99 1018.2
20211203131152 30 63 0.0 0.0 0.00 0.01 0.00 99 1018.3
20211203130150 30 55 0.0 0.0 0.00 0.01 0.00 99 1018.3
20211203125150 30 68 0.0 0.0 0.00 0.01 0.00 99 1018.2
20211203124150 30 45 0.0 0.0 0.00 0.01 0.00 99 1018.2
20211203123150 30 45 0.0 0.0 0.00 0.01 0.00 99 1018.2
20211203122152 30 45 0.0 0.0 0.00 0.01 0.00 99 1018.3
20211203121150 29 45 0.0 0.0 0.00 0.01 0.00 99 1018.3
20211203120150 29 45 0.0 0.0 0.00 0.01 0.00 99 1018.5
20211203115150 29 45 0.0 0.0 0.00 0.01 0.00 99 1018.5
20211203114150 29 51 0.0 0.0 0.00 0.01 0.00 99 1018.6
20211203113150 29 45 0.0 0.0 0.00 0.01 0.00 99 1018.7
20211203112150 29 45 0.0 0.0 0.00 0.01 0.00 99 1018.7
20211203111150 29 45 0.0 0.0 0.00 0.01 0.00 99 1018.7
20211203105150 29 45 0.0 0.0 0.00 0.01 0.00 99 1018.6
20211203104149 29 45 0.0 0.0 0.00 0.01 0.00 99 1018.6
20211203103149 30 45 0.0 0.0 0.00 0.01 0.00 99 1018.6
20211203102149 30 45 0.0 0.0 0.00 0.01 0.00 99 1018.6
20211203100149 30 45 0.0 0.0 0.00 0.01 0.00 99 1018.3
20211203095149 30 45 0.0 0.0 0.00 0.01 0.00 99 1018.3
20211203094149 30 45 0.0 0.0 0.00 0.01 0.00 99 1018.3
20211203093149 30 22 0.0 0.0 0.00 0.01 0.00 99 1018.3
20211203092149 30 45 0.0 0.0 0.00 0.01 0.00 99 1018.3
20211203091149 30 45 0.0 0.0 0.00 0.01 0.00 99 1018.2
20211203090149 30 45 0.0 0.0 0.00 0.01 0.00 99 1018.0
20211203085149 30 45 0.0 0.0 0.00 0.01 0.00 99 1018.0
20211203084149 31 45 0.0 0.0 0.00 0.01 0.00 99 1018.1
20211203083149 31 45 0.0 0.0 0.00 0.01 0.00 99 1018.5
20211203082149 31 45 0.0 0.0 0.00 0.01 0.00 99 1018.6
20211203081149 32 45 0.0 0.0 0.00 0.01 0.00 99 1018.4
20211203080149 32 45 0.0 0.0 0.00 0.01 0.00 99 1018.2
20211203075148 32 68 0.0 0.0 0.00 0.01 0.01 99 1018.2
20211203074148 33 45 0.0 0.0 0.00 0.01 0.01 99 1018.4
20211203073148 33 45 0.0 0.0 0.00 0.01 0.01 99 1018.4
20211203072149 33 56 0.0 0.0 0.00 0.01 0.01 99 1018.3
20211203071148 33 68 0.0 0.0 0.00 0.01 0.01 99 1018.2
20211203070148 33 53 0.0 0.0 0.00 0.01 0.01 99 1018.4
20211203065148 33 78 0.0 0.0 0.00 0.01 0.01 99 1018.4
20211203063148 33 68 0.0 0.0 0.00 0.01 0.01 99 1017.9
20211203062148 33 68 0.0 0.0 0.00 0.01 0.01 99 1017.9
20211203061148 33 90 0.0 0.0 0.00 0.01 0.01 99 1017.8
20211203060148 33 45 0.0 0.0 0.00 0.01 0.01 99 1017.6
20211203055148 33 48 0.0 0.0 0.00 0.01 0.01 99 1017.6
20211203054148 33 45 0.0 0.0 0.00 0.01 0.01 99 1017.7
20211203052148 33 45 0.0 0.0 0.00 0.01 0.01 99 1017.5
20211203051148 33 50 0.0 0.0 0.00 0.01 0.01 99 1017.5
20211203050148 33 57 0.0 0.0 0.00 0.01 0.01 98 1017.6
20211203045148 33 66 0.0 0.0 0.00 0.01 0.01 99 1017.6
20211203044148 33 45 0.0 0.0 0.00 0.01 0.01 98 1017.7
20211203043148 33 45 0.0 0.0 0.00 0.01 0.01 96 1017.7
20211203042148 34 45 0.0 0.0 0.00 0.02 0.01 95 1017.4
20211203041148 34 45 0.0 0.0 0.00 0.02 0.01 94 1017.4
20211203040148 35 45 0.0 0.0 0.00 0.02 0.01 94 1017.3
20211203035148 35 45 0.0 0.0 0.00 0.02 0.01 92 1017.3
20211203034148 36 45 0.0 0.0 0.00 0.03 0.01 90 1017.3
20211203033148 37 45 0.0 0.0 0.00 0.03 0.01 89 1017.1
20211203032147 37 48 0.0 0.0 0.00 0.04 0.01 88 1016.9
20211203031147 38 85 0.0 0.0 0.00 0.04 0.01 86 1016.8
20211203025148 39 55 0.0 0.0 0.00 0.05 0.01 83 1016.6
20211203024147 39 246 0.0 0.0 0.00 0.05 0.01 83 1016.3
20211203023117 39 264 0.0 3.0 0.00 0.05 0.01 82 1016.6
20211203022117 39 296 2.0 2.0 0.00 0.05 0.01 82 1016.6
20211203021117 40 237 0.0 0.0 0.00 0.07 0.01 81 1016.6
20211203020117 40 167 0.0 1.0 0.00 0.07 0.01 81 1016.6
20211203015117 40 270 2.0 6.0 0.00 0.07 0.01 80 1016.6
20211203014117 40 256 2.0 3.0 0.00 0.07 0.01 82 1016.6
20211203013118 39 278 0.0 0.0 0.00 0.07 0.01 83 1016.4
20211203012118 39 84 0.0 0.0 0.00 0.08 0.01 84 1016.1
20211203010117 40 28 0.0 0.0 0.00 0.09 0.01 82 1016.3
20211203005117 41 180 0.0 0.0 0.00 0.09 0.01 81 1016.3
20211203004117 41 43 0.0 0.0 0.00 0.09 0.01 80 1016.3
20211203003117 41 255 2.0 3.0 0.00 0.09 0.01 80 1016.3
20211203002117 41 90 1.0 0.0 0.00 0.09 0.01 81 1016.2
20211203001117 42 313 0.0 0.0 0.00 0.09 0.01 81 1016.0
20211203000117 42 270 0.0 1.0 0.00 0.09 0.01 81 1016.1
20211202235118 43 281 2.0 5.0 0.00 0.09 0.01 80 1016.0
20211202234117 43 178 2.0 5.0 0.00 0.09 0.01 80 1015.9
20211202233047 43 202 2.0 2.0 0.00 0.09 0.01 78 1015.9
20211202232047 44 230 3.0 5.0 0.00 0.09 0.01 76 1015.6
20211202231046 45 246 3.0 6.0 0.00 0.09 0.01 73 1015.4
20211202230046 46 257 5.0 6.0 0.00 0.09 0.01 72 1015.6
20211202225046 47 0 2.0 5.0 0.00 0.09 0.01 69 1015.5
20211202224046 48 259 5.0 8.0 0.00 0.09 0.01 69 1015.5
20211202223046 48 242 5.0 6.0 0.00 0.09 0.01 68 1015.6
20211202222048 48 257 3.0 8.0 0.00 0.09 0.01 69 1015.5
20211202221046 46 112 7.0 7.0 0.00 0.09 0.01 71 1015.4
20211202220046 47 246 3.0 6.0 0.00 0.09 0.01 68 1015.4
20211202215046 49 13 5.0 6.0 0.00 0.09 0.01 65 1015.4